This demonstration page uses our WeatherBlox Daily Observations layout. Learn more.

Left ArrowRight Arrow

Hourly Observations for October 6, 2022

Temp ( °F °C ) Dew Point ( °F °C ) Humidity (%) Winds ( mph kmh ) Pressure ( in mb ) Visibility ( mi km ) Precip ( " mm )
12:53 am 00:53 Clear 67 19.4 49 9.4 52 52 Calm 29.97 1015 10 16 0.00 0.00
1:53 am 01:53 Clear 65 18.3 48 8.9 54 54 Calm 29.97 1015 10 16 0.00 0.00
2:53 am 02:53 Clear 64 17.8 49 9.4 58 58 Calm 29.98 1015 10 16 0.00 0.00
3:53 am 03:53 Clear 63 17.2 49 9.4 60 60 N 3 6 29.98 1015 10 16 0.00 0.00
4:53 am 04:53 Clear 62 16.7 50 10 65 65 Calm 29.98 1015 10 16 0.00 0.00
5:53 am 05:53 undefined 60 15.6 49 9.4 67 67 NNE 3 6 29.99 1016 10 16 0.00 0.00
6:53 am 06:53 Clear 60 15.6 48 8.9 64 64 Calm 30.00 1016 10 16 0.00 0.00
7:53 am 07:53 Sunny 60 15.6 49 9.4 67 67 Calm 30.02 1017 10 16 0.00 0.00
8:53 am 08:53 Sunny 69 20.6 49 9.4 49 49 Calm 30.03 1017 10 16 0.00 0.00
9:53 am 09:53 Sunny 75 23.9 46 7.8 36 36 Calm 30.03 1017 10 16 0.00 0.00
10:53 am 10:53 Sunny 81 27.2 46 7.8 29 29 Calm 30.03 1017 10 16 0.00 0.00
11:53 am 11:53 Sunny 85 29.4 46 7.8 26 26 E 3 6 30.02 1017 10 16 0.00 0.00
12:53 pm 12:53 Sunny 87 30.6 49 9.4 27 27 Calm 30.01 1016 10 16 0.00 0.00
1:53 pm 13:53 Sunny 89 31.7 49 9.4 25 25 VRB 5 7 29.98 1015 10 16 0.00 0.00
2:53 pm 14:53 Sunny 92 33.3 47 8.3 21 21 Calm 29.96 1015 10 16 0.00 0.00
3:53 pm 15:53 Sunny 92 33.3 46 7.8 21 21 S 8 13 29.96 1014 10 16 0.00 0.00
4:53 pm 16:53 Sunny 93 33.9 44 6.7 19 19 Calm 29.95 1014 10 16 0.00 0.00
5:53 pm 17:53 Sunny 91 32.8 36 2.2 14 14 S 8 13 29.95 1014 10 16 0.00 0.00
6:53 pm 18:53 Clear 85 29.4 37 2.8 18 18 S 7 11 29.95 1014 10 16 0.00 0.00
7:53 pm 19:53 Clear 78 25.6 39 3.9 25 25 Calm 29.97 1015 10 16 0.00 0.00
8:53 pm 20:53 Clear 73 22.8 40 4.4 30 30 Calm 29.98 1015 10 16 0.00 0.00
9:53 pm 21:53 Clear 70 21.1 42 5.6 36 36 Calm 30.00 1016 10 16 0.00 0.00
10:53 pm 22:53 Clear 67 19.4 43 6.1 42 42 Calm 30.01 1016 10 16 0.00 0.00
11:53 pm 23:53 Clear 66 18.9 45 7.2 47 47 Calm 30.02 1017 10 16 0.00 0.00

Powered by AerisWeather